This is the latest recevied weather packets stored in our database for station/object WI0K. If no packets are shown the sender has not sent any weather packets the latest 10 day(s).
| Time | Temp. | Humidity | Pressure | Rain* | Wind** | Luminosity | Snow |
|---|---|---|---|---|---|---|---|
| 1778203255 | 18.33° C | 28% | 1013.7 hPa | 0 mm | - | 12 W/m² | - |
| 1778202955 | 18.89° C | 29% | 1013.5 hPa | 0 mm | - | 18 W/m² | - |
| 1778202654 | 18.89° C | 27% | 1013.3 hPa | 0 mm | - | 21 W/m² | - |
| 1778202353 | 18.89° C | 26% | 1013.3 hPa | 0 mm | - | 18 W/m² | - |
| 1778202053 | 18.89° C | 25% | 1013.2 hPa | 0 mm | - | 17 W/m² | - |
| 1778201752 | 18.89° C | 25% | 1013.1 hPa | 0 mm | - | 18 W/m² | - |
| 1778201451 | 18.89° C | 27% | 1013.2 hPa | 0 mm | - | 22 W/m² | - |
| 1778201151 | 18.89° C | 26% | 1013.1 hPa | 0 mm | - | 41 W/m² | - |
| 1778200850 | 18.89° C | 25% | 1013.1 hPa | 0 mm | - | 78 W/m² | - |
| 1778200549 | 18.89° C | 25% | 1013.1 hPa | 0 mm | - | 74 W/m² | - |
| 1778200249 | 19.44° C | 25% | 1013.1 hPa | 0 mm | - | 75 W/m² | - |
| 1778199948 | 19.44° C | 25% | 1013.1 hPa | 0 mm | - | 79 W/m² | - |
| 1778199647 | 19.44° C | 26% | 1013.1 hPa | 0 mm | - | 114 W/m² | - |
| 1778199347 | 19.44° C | 25% | 1013 hPa | 0 mm | - | 118 W/m² | - |
| 1778199046 | 19.44° C | 24% | 826.8 hPa | 0 mm | - | 113 W/m² | - |
| 1778198746 | 20° C | 24% | 1013 hPa | 0 mm | - | 118 W/m² | - |
| 1778198445 | 19.44° C | 25% | 1013.1 hPa | 0 mm | - | 133 W/m² | - |
| 1778198144 | 19.44° C | 25% | 1013.1 hPa | 0 mm | - | 119 W/m² | - |
| 1778197843 | 19.44° C | 25% | 1013.1 hPa | 0 mm | - | 114 W/m² | - |
| 1778197543 | 19.44° C | 24% | 1013 hPa | 0 mm | - | 84 W/m² | - |
| 1778197242 | 20° C | 25% | 1013 hPa | 0 mm | - | 89 W/m² | - |
| 1778196941 | 20° C | 25% | 1013.1 hPa | 0 mm | - | 85 W/m² | - |
| 1778196641 | 20° C | 25% | 1013.1 hPa | 0 mm | - | 101 W/m² | - |
| 1778196340 | 20° C | 25% | 1013.2 hPa | 0 mm | - | 108 W/m² | - |
| 1778196039 | 20° C | 26% | 1013.2 hPa | 0 mm | - | 147 W/m² | - |
* Rain latest hour (hover to see other rain measurements)
** Current wind speed in m/s (hover to see current wind gust speed)